Location: Dappach
(48.9767°N, 9.6998°E)
Time: 03:00:49
(UTC+00:00)

Cosmos 1300 - Pass Details

Date: 23 May 2024
Orbit: 465 x 468 km, 82.5° (Epoch: 13 June)

Event Time Altitude Azimuth Distance (km) Brightness Sun altitude
Rises 00:55:18 0° 335° (NNW) 2,515 6.8 -17.1°
Reaches altitude 10° 00:57:54 10° 315° (NW) 1,632 5.5 -16.9°
Maximum altitude 01:00:17 17° 273° (W) 1,242 4.4 -16.7°
Enters shadow 01:00:30 17° 268° (W) 1,245 4.4 -16.7°
